TIME,DELAY(SENSOR),PRES,OXYGEN,RAWTEMP,T(OPTODE),TCPHASE,FLUOR,BETA(BETA700),BETA(BETA412),BETA(BETA440),CDOM,C(CSC),ED(ED412.40),ED(ED444.00),ED(ED489.70),ED(ED554.30),LU(LU411.80),LU(LU443.40),LU(LU489.60),LU(LU554.10),COMP,TILTX,TILTY,CHECK
1374722062,5810,885.1300048828125000,46.4431991577148440,664.4293212890625000,4.4820418357849120,54.0979995727539060,52,100,83,79,79,15365,2147752722,2147426678,2148011940,2147873362,2147640621,2147052946,2148261220,2147195382,1061,4,13,54493
1374725658,5808,974.0900268554688000,51.1144294738769500,671.7437133789062000,4.2405781745910645,53.5359611511230500,53,100,86,79,79,15362,2147753472,2147422107,2148011922,2147875410,2147640749,2147051840,2148261970,2147192731,3484,4,14,50923
1374729258,5812,996.2500000000000000,50.6088905334472660,670.5244750976562000,4.2808690071105960,53.5937995910644500,51,99,88,78,79,15362,2147754724,2147423753,2148012699,2147876004,2147640630,2147058742,2148259236,2147191808,2987,4,13,45664
1374732858,5812,991.4600219726562000,51.0558204650878900,671.0294189453125000,4.2641868591308590,53.5371589660644500,53,100,86,78,79,15365,2147754093,2147423369,2148011108,2147874578,2147637778,2147056530,2148261120,2147197869,3379,4,13,46741
1374736458,5808,985.3800048828125000,50.6665611267089840,673.3076171875000000,4.1888751983642580,53.6208801269531250,52,106,86,78,79,15364,2147755702,2147423515,2148013238,2147872100,2147642386,2147054134,2148257627,2147197001,3300,4,13,33857
1374740058,5810,989.8300170898438000,51.7782783508300800,674.2813720703125000,4.1566619873046875,53.4798202514648440,52,103,85,80,79,15362,2147755428,2147426203,2148011236,2147871570,2147640804,2147049170,2148262381,2147193261,3219,4,13,4918
1374743658,5814,984.3499755859375000,51.2965011596679700,674.8549804687500000,4.1376857757568360,53.5545692443847660,53,98,86,79,79,15357,2147755145,2147423414,2148014784,2147872146,2147640164,2147053860,2148264777,2147197558,3248,4,13,11796
1374747258,5813,990.6900024414062000,51.2750091552734400,675.4581298828125000,4.1177248954772950,53.5621414184570300,53,98,84,78,81,15350,2147752868,2147423259,2148014180,2147875968,2147640667,2147052160,2148267008,2147194477,132,4,13,53926
1374750858,5809,985.1300048828125000,51.5067291259765600,676.1859741210938000,4.0936341285705570,53.5432281494140600,51,98,87,79,79,15357,2147755017,2147425325,2148013732,2147875181,2147642898,2147048320,2148267081,2147197824,3355,4,13,54435
1374754458,5810,988.7800292968750000,51.3639106750488300,676.4295043945312000,4.0855708122253420,53.5672302246093750,54,115,87,79,79,15354,2147754724,2147425499,2148011794,2147872996,2147642916,2147057581,2148264173,2147192585,3503,4,13,47838
1374758058,5811,987.9600219726562000,51.4942893981933600,677.0272216796875000,4.0657830238342285,53.5545806884765600,53,101,85,77,79,15357,2147756525,2147422537,2148011181,2147870372,2147641910,2147049490,2148265938,2147195026,3046,4,13,17704
1374761658,5807,995.4299926757812000,51.5824584960937500,676.4699096679688000,4.0842342376708980,53.5333709716796900,52,98,84,78,80,15357,2147756745,2147427894,2148012544,2147872676,2147642953,2147051675,2148263259,2147197851,3438,4,13,35052
1374765258,5810,1001.7500000000000000,51.6631011962890600,675.4528198242188000,4.1179008483886720,53.5094795227050800,53,100,82,78,79,15356,2147756178,2147423049,2148011492,2147871350,2147642093,2147053138,2148262171,2147199862,2627,4,13,45439
1374768858,5810,1002.8300170898438000,51.4323616027832000,674.2760009765625000,4.1568408012390140,53.5251197814941400,51,97,90,79,79,15357,2147754733,2147422061,2148013522,2147872338,2147643346,2147059437,2148262198,2147197174,3446,4,13,1121
1374772458,5807,1008.5900268554688000,51.5433616638183600,673.8067016601562000,4.1723651885986330,53.5042610168457000,52,100,87,79,79,15359,2147756233,2147422994,2148013494,2147873453,2147640429,2147054921,2148258651,2147195483,3320,4,13,29593
1374776058,5806,1006.9500122070312000,50.8424301147460940,673.8527221679688000,4.1708431243896480,53.5998115539550800,52,99,84,77,79,15357,2147754916,2147424402,2148009014,2147870253,2147641682,2147061147,2148266130,2147193691,3133,4,13,63853
1374779658,5809,1001.2500000000000000,51.1138191223144500,675.1210937500000000,4.1288800239562990,53.5836601257324200,52,97,85,79,78,15358,2147753865,2147426468,2148014884,2147875492,2147641709,2147054098,2148269888,2147197211,3491,4,13,62346
1374783258,5809,992.0800170898438000,51.0194511413574200,675.3950195312500000,4.1198139190673830,53.5968093872070300,52,98,84,78,80,15358,2147755876,2147422089,2148013622,2147873115,2147640576,2147055570,2148266102,2147198820,3424,4,13,24179
1374786858,5809,992.2100219726562000,50.7449684143066400,676.3048706054688000,4.0896949768066410,53.6434288024902340,52,98,86,79,79,15356,2147755364,2147423131,2148012379,2147873005,2147642422,2147051995,2148266377,2147197714,794,4,13,22615
1374790458,5810,990.7100219726562000,50.8026809692382800,676.7318115234375000,4.0755629539489750,53.6478996276855500,52,98,87,78,78,15353,2147756306,2147420736,2148011154,2147876050,2147642733,2147050770,2148263369,2147194980,3416,4,13,34975
1374794058,5810,986.3200073242188000,51.4967803955078100,678.1276855468750000,4.0293331146240230,53.5696182250976560,53,99,86,78,80,15359,2147753106,2147421760,2148013979,2147875629,2147642560,2147050121,2148261312,2147193609,11,4,13,7777
1374797658,5809,993.2600097656250000,51.6588287353515600,678.0897827148438000,4.0305857658386230,53.5449104309082000,52,97,84,78,80,15358,2147755072,2147422144,2148012352,2147877787,2147640758,2147054345,2148261924,2147194550,3282,4,13,31183
1374801258,5811,998.4699707031250000,51.6030693054199200,677.1987304687500000,4.0601019859313965,53.5431785583496100,52,97,86,79,79,15356,2147755245,2147422445,2148015186,2147875785,2147641700,2147054436,2148265728,2147194331,3245,4,13,1009
1374804858,5810,1001.0399780273438000,51.4441490173339840,677.0368041992188000,4.0654640197753910,53.5609092712402340,52,97,85,79,79,15356,2147754724,2147424384,2148011044,2147875209,2147644909,2147055387,2148263716,2147196105,3223,4,13,13062
1374808458,5808,1008.0100097656250000,51.4915008544921900,676.2064819335938000,4.0929532051086430,53.5462989807128900,53,98,84,78,79,15355,2147754450,2147424219,2148011026,2147875520,2147642733,2147055341,2148263250,2147194816,3503,4,13,6009
1374812058,5805,1010.1199951171875000,51.3430900573730500,675.1126098632812000,4.1291599273681640,53.5473098754882800,52,100,88,78,79,15355,2147753984,2147422555,2148012992,2147875693,2147640237,2147049910,2148259181,2147197952,3576,4,13,31159
1374815658,5811,1014.3300170898438000,51.4527587890625000,674.6787109375000000,4.1435170173645020,53.5335998535156250,53,102,86,78,79,15355,2147756086,2147424786,2148013339,2147874907,2147644050,2147057892,2148265718,2147196918,3302,4,13,31732
1374819258,5809,1011.0800170898438000,50.9814682006835940,674.5288696289062000,4.1484761238098145,53.5898704528808600,51,98,85,79,79,15352,2147756452,2147423250,2148014838,2147877193,2147645677,2147058532,2148267702,2147193728,91,4,13,13231
1374822858,5809,1007.9400024414062000,51.2503700256347660,675.1364135742188000,4.1283721923828125,53.5653610229492200,52,96,81,79,79,15356,2147752758,2147422857,2148011574,2147877074,2147642532,2147052635,2148264749,2147195373,345,4,13,53919
1374826458,5808,999.7999877929688000,51.0581398010253900,675.5000000000000000,4.1163392066955570,53.5956192016601560,52,98,86,78,79,15353,2147752118,2147424667,2148009206,2147873600,2147643282,2147054281,2148261229,2147196361,468,4,13,44968
1374830058,5805,1010.5800170898438000,51.5943298339843750,675.2545166015625000,4.1244659423828125,53.5157089233398440,53,98,82,78,79,15355,2147752594,2147424393,2148012662,2147873636,2147644132,2147053238,2148261577,2147196278,93,4,13,20268
1374833658,5810,1001.4899902343750000,50.8214302062988300,675.7819213867188000,4.1070079803466800,53.6313781738281250,52,96,85,79,79,15355,2147754806,2147425307,2148012726,2147872640,2147639890,2147053440,2148257106,2147195803,3196,4,13,42679
1374837258,5810,989.0200195312500000,51.3030891418457000,677.9907226562500000,4.0338730812072750,53.5927886962890600,53,99,89,78,79,15354,2147756498,2147424987,2148011693,2147874038,2147643254,2147053476,2148264722,2147194898,3497,4,13,49826
1374840858,5811,992.1699829101562000,51.1972198486328100,678.4102172851562000,4.0199761390686035,53.6111183166503900,52,96,87,79,80,15353,2147758729,2147427492,2148009581,2147875163,2147643437,2147053760,2148262363,2147198281,25,4,13,34616
1374844458,5809,996.4400024414062000,50.9568405151367200,678.4598999023438000,4.0183281898498535,53.6487693786621100,53,97,84,78,80,15353,2147756105,2147423981,2148013211,2147873234,2147641426,2147056521,2148262985,2147195382,428,4,13,63414
1374848058,5809,998.2399902343750000,52.0307807922363300,677.8186035156250000,4.0395717620849610,53.4897499084472660,52,97,86,79,79,15344,2147756379,2147425645,2148014262,2147876416,2147640877,2147049920,2148261028,2147196205,94,4,13,46510
1374851658,5807,1011.9500122070312000,51.6192703247070300,676.3472900390625000,4.0882930755615230,53.5312118530273440,53,98,88,78,80,15343,2147755428,2147423460,2148011858,2147877376,2147639332,2147054912,2148257453,2147198528,3484,3,13,9759
1374855258,5808,1006.5700073242188000,50.2555198669433600,675.2553710937500000,4.1244339942932130,53.7016410827636700,52,98,87,77,79,15340,2147753773,2147426468,2148015469,2147871734,2147641654,2147051894,2148262939,2147197193,146,4,13,36441
1374858858,5809,1008.3800048828125000,50.4284896850585940,674.8115844726562000,4.1391220092773440,53.6702690124511700,52,97,85,79,80,15338,2147756196,2147423954,2148012013,2147875227,2147642678,2147056283,2148263533,2147195209,453,4,13,19207
1374862458,5810,1009.1400146484375000,50.7959289550781250,674.4613037109375000,4.1507110595703125,53.6184883117675800,53,101,83,78,79,15248,2147755145,2147422445,2148013833,2147873856,2147639113,2147048228,2148262473,2147195949,3396,4,13,12133
1374866058,5809,1003.9299926757812000,50.8276710510253900,674.4791870117188000,4.1501197814941410,53.6140403747558600,52,97,83,78,79,15246,2147756004,2147424758,2148012845,2147874084,2147641654,2147053750,2148264859,2147197357,101,4,13,56287
1374866155,5809,1004.4500122070312000,50.7542495727539060,674.3975219726562000,4.1528220176696780,53.6188316345214840,52,102,84,78,80,15341,2147755931,2147423753,2148014381,2147878738,2147642962,2147053842,2148263954,2147200365,231,4,13,19748
